Wind_Speed
40 40 39 40 37 34 34 32 28 21 25 28 30 27 25 24 23 20 19 18 18 17 18 16 15 14 12 10 7 7 6 5 4 9 11 14 16 16 17 19 22 20 21
41 42 41 41 40 38 37 36 33 29 26 23 25 25 28 29 27 24 22 20 20 18 17 17 16 13 13 11 11 10 10 9 9 13 16 17 18 20 23 25 23 23 18
32 35 36 37 39 42 41 39 36 33 31 28 23 28 30 28 31 29 25 23 22 21 19 17 18 17 16 16 14 13 13 12 12 13 16 20 24 25 25 24 23 23 29
30 32 34 38 41 42 42 41 41 39 36 33 30 27 30 29 27 31 29 27 27 25 23 22 21 21 20 19 19 18 17 16 17 17 20 23 24 25 24 24 28 31 34
31 32 35 37 40 41 40 41 42 42 41 38 34 31 29 31 30 32 32 31 30 30 28 26 25 24 23 21 22 21 20 21 21 21 23 25 27 26 25 26 28 29 33
35 36 34 33 34 36 39 40 40 42 44 41 40 37 36 32 32 33 34 34 33 32 31 29 28 27 26 26 26 25 24 25 26 25 25 24 27 28 29 30 30 26 15
29 29 29 30 30 30 33 35 37 39 39 40 43 43 41 41 38 35 33 35 37 37 35 33 32 31 29 28 28 28 28 27 27 28 29 30 30 30 29 32 32 24 24
13 16 27 29 35 35 32 36 38 35 37 39 38 38 43 45 44 42 38 38 39 39 38 36 34 35 33 30 28 29 29 29 29 29 30 33 31 30 28 27 27 26 27
6 10 16 32 30 32 35 33 33 31 33 35 36 36 37 39 41 44 40 39 41 42 42 39 38 38 36 33 31 32 32 32 30 29 29 29 30 30 28 29 29 24 16
7 7 6 9 29 30 32 33 31 32 34 32 33 36 39 38 38 39 41 41 38 39 40 43 43 41 39 36 34 33 34 37 34 33 31 30 30 30 28 28 27 24 20
15 12 14 12 11 14 20 31 32 36 32 31 31 33 35 38 39 40 41 43 37 34 34 33 38 43 41 39 38 37 39 37 37 35 34 32 32 33 29 24 23 22 22
19 16 16 15 15 18 17 24 34 32 32 33 30 28 30 34 38 39 40 41 42 38 35 33 38 41 41 39 37 37 37 37 39 39 35 34 35 36 30 27 24 24 24
21 17 20 19 18 20 21 18 28 30 30 28 28 27 28 28 33 38 41 41 42 45 41 35 34 36 36 35 35 33 30 30 34 34 34 35 32 30 29 27 21 18 16
21 24 24 22 23 18 19 20 30 27 27 30 27 28 26 26 31 32 34 39 41 43 45 43 41 38 37 37 35 34 31 32 33 34 34 32 28 23 22 19 17 14 14
18 23 19 19 23 23 22 18 28 37 36 31 32 31 29 30 35 37 36 37 41 44 43 42 32 32 35 36 39 39 35 32 33 33 30 26 22 21 21 17 17 16 16
21 20 24 24 27 26 24 20 29 35 35 40 40 37 34 38 33 34 36 37 38 36 30 30 28 28 30 30 29 30 33 36 35 33 29 28 29 27 25 20 18 18 18
24 20 19 19 19 23 25 22 16 25 35 33 40 44 43 42 37 35 33 33 37 37 32 26 27 28 29 28 29 28 27 33 33 35 34 32 30 28 26 23 18 13 14
21 20 21 16 18 22 21 21 22 17 22 29 39 43 47 45 41 37 36 33 32 36 30 29 26 29 28 29 30 28 29 30 28 27 26 25 23 23 20 15 8 4 3
22 17 16 21 22 19 20 20 20 19 20 24 26 36 44 44 43 41 36 35 29 30 37 31 31 30 31 35 34 32 29 26 24 22 22 21 22 23 22 18 16 11 7
20 19 18 20 20 21 21 19 18 17 19 22 26 32 30 35 37 37 39 39 34 32 32 34 32 31 29 27 26 27 25 26 24 24 24 26 27 28 31 32 30 27 20
17 14 14 17 15 14 17 17 19 16 13 16 25 28 28 28 25 21 23 27 26 26 26 25 23 25 24 25 25 25 25 23 21 19 22 26 25 24 25 26 25 23 14
15 13 11 10 7 9 12 10 12 14 11 10 13 15 15 15 14 17 20 19 15 11 11 11 13 15 17 18 18 19 18 19 18 18 18 20 21 19 20 20 15 11 9
8 9 10 10 11 11 10 8 9 12 9 10 12 10 16 19 19 19 16 14 13 12 11 14 13 12 12 10 9 10 10 13 15 14 15 18 21 21 21 20 20 18 17
6 7 8 10 11 11 10 11 9 13 15 16 18 16 13 14 21 20 20 19 19 18 15 19 16 15 14 15 12 10 6 5 9 12 10 9 13 14 14 13 12 13 12
15 13 14 16 16 16 16 15 12 12 18 19 23 23 20 19 20 23 24 26 26 26 26 23 22 22 20 19 19 17 13 8 6 9 9 8 5 5 5 4 8 9 8
22 19 19 22 22 21 21 18 18 15 19 24 25 26 24 24 26 23 24 28 31 31 28 27 23 24 23 22 19 14 15 19 14 12 12 11 14 11 9 6 6 8 6
Wind_Direction
204 206 210 212 215 220 228 233 235 243 241 244 243 242 241 239 240 240 240 239 240 245 244 249 254 258 260 261 268 273 299 303 275 298 303 314 318 325 327 326 324 324 325
201 204 211 214 215 219 226 232 234 237 243 244 242 243 248 244 241 242 244 242 241 244 247 250 254 257 255 265 262 268 274 284 275 288 299 306 307 313 318 318 319 324 325
204 203 207 212 215 220 225 229 234 237 239 243 249 243 245 250 240 239 244 246 246 249 250 255 260 262 263 267 274 267 265 278 280 281 294 303 307 313 316 316 319 323 321
206 205 205 211 218 221 226 231 230 234 237 240 242 243 241 244 241 236 241 245 247 250 254 257 263 267 269 269 271 269 272 273 279 280 288 296 301 308 310 314 319 324 327
209 207 211 213 218 223 225 228 233 233 235 238 240 240 242 242 238 234 239 244 248 251 253 255 259 264 266 269 270 271 274 274 275 279 284 291 296 303 307 311 312 322 323
208 213 214 212 213 219 224 225 227 233 235 238 239 241 240 242 242 239 240 244 247 250 255 259 261 261 260 261 263 266 269 271 272 274 279 281 288 296 303 307 312 313 318
211 214 214 212 213 218 222 225 227 227 233 233 238 239 241 244 243 242 243 245 248 251 255 261 265 266 264 261 261 263 265 265 266 271 274 277 285 292 299 301 305 303 299
183 210 216 212 214 217 218 222 227 226 228 231 233 234 239 242 245 246 246 243 245 249 255 260 265 269 267 265 265 266 267 267 267 267 271 277 282 291 295 298 299 296 298
213 217 225 214 210 212 215 218 224 222 226 228 231 231 232 236 239 243 243 241 242 248 255 258 264 267 268 267 266 266 270 271 272 273 275 279 283 288 291 292 290 292 298
15 273 258 197 209 213 218 219 220 223 227 227 229 232 236 236 235 237 238 237 238 245 252 258 261 262 264 264 265 267 268 271 275 279 280 282 286 289 289 284 284 277 278
344 320 281 274 267 233 233 226 221 223 224 226 228 230 233 237 237 237 236 234 233 239 243 247 255 259 259 260 260 262 264 273 277 279 282 284 287 290 289 285 281 277 273
344 331 303 287 290 281 258 232 219 215 218 222 223 228 229 233 240 239 240 237 238 235 241 245 251 257 262 263 262 263 266 269 270 270 272 275 281 286 287 288 287 280 278
333 326 334 322 300 302 274 238 212 210 217 224 223 224 226 227 233 238 242 241 242 240 241 244 248 259 263 266 266 267 268 265 263 262 264 270 274 282 288 290 288 279 270
329 335 338 333 321 305 294 261 215 207 216 224 223 225 224 222 227 232 235 240 244 244 246 247 251 253 257 263 266 265 261 260 260 262 263 269 275 278 284 287 273 265 268
325 329 333 326 324 313 303 273 233 222 214 214 222 222 219 222 224 225 225 232 239 241 242 244 245 248 251 254 256 257 257 255 255 257 257 260 268 276 278 268 254 249 250
330 325 329 330 324 320 309 294 246 230 227 226 228 229 231 233 232 232 233 236 245 248 233 231 236 236 240 242 244 249 251 249 248 247 247 252 261 263 268 262 251 257 253
316 317 310 323 312 305 303 307 299 256 235 233 232 235 235 240 236 237 237 240 242 240 229 229 231 232 234 236 237 238 236 246 253 249 252 254 256 258 250 247 247 250 253
309 308 309 320 308 304 300 300 297 241 220 232 234 234 237 238 238 240 239 234 230 232 231 234 231 231 232 232 236 235 239 247 250 249 246 241 234 227 229 232 216 206 297
300 304 313 317 304 302 307 298 286 266 232 237 229 235 234 236 237 236 234 234 228 231 234 232 234 235 233 237 238 238 242 245 238 234 233 227 217 202 186 177 168 156 153
308 315 319 314 313 317 314 309 304 289 246 226 220 232 236 235 236 235 237 237 235 236 241 241 239 237 237 237 237 243 235 231 232 224 219 210 206 213 218 207 203 210 218
306 307 305 307 309 316 302 309 306 299 298 250 239 244 244 236 233 228 229 229 233 238 244 250 243 240 238 236 236 225 218 215 208 203 210 215 221 232 241 244 247 235 202
302 302 314 309 306 323 318 307 328 315 326 318 242 243 236 224 208 187 183 189 188 191 199 202 192 190 190 191 190 197 202 216 223 228 226 223 226 245 239 230 214 199 183
319 326 347 352 347 349 326 353 10 6 20 60 86 101 149 154 153 152 145 142 145 139 142 139 137 142 151 161 174 178 195 198 204 223 234 240 234 225 212 195 182 175 180
20 34 28 15 16 23 6 22 30 37 49 55 76 83 82 104 130 130 131 128 118 112 110 106 109 106 106 106 99 102 123 166 176 171 174 185 195 193 191 190 189 196 202
40 41 49 37 22 31 26 32 40 64 63 66 72 73 74 86 86 104 117 116 116 111 98 93 91 92 88 85 80 70 66 78 120 136 149 150 158 201 168 191 215 209 194
44 41 46 48 37 35 32 32 35 45 71 82 87 85 79 82 81 85 91 101 102 98 97 91 77 88 85 79 76 80 70 65 66 89 119 112 122 95 71 117 111 89 91
Height
799 804 810 813 819 825 830 835 839 843 845 848 850 853 855 856 859 861 863 865 866 867 868 868 868 869 870 869 869 869 869 868 868 865 864 863 861 860 859 857 855 853 850
791 797 804 809 813 818 823 828 834 838 842 844 846 849 851 853 856 858 860 863 865 865 866 867 866 867 867 867 867 867 867 867 866 864 862 860 859 859 857 854 852 850 847
793 795 799 804 807 810 815 820 827 832 836 840 842 844 847 849 851 855 857 859 861 863 864 864 863 864 865 865 865 865 866 865 864 862 860 859 857 856 853 852 850 847 845
789 793 795 797 801 804 808 813 818 823 829 833 837 840 842 845 847 850 853 855 857 859 860 860 860 861 861 862 862 862 863 862 862 860 858 856 855 853 852 849 845 843 839
784 787 787 790 794 798 801 806 811 815 820 825 831 835 838 840 842 845 847 850 852 853 854 855 856 857 857 858 859 859 859 859 859 857 855 853 851 850 848 846 844 841 836
775 777 782 785 789 792 795 798 803 808 812 817 821 827 831 834 837 840 843 845 846 848 848 849 850 851 852 853 854 854 855 855 854 854 852 850 847 846 844 843 841 838 834
768 774 778 782 785 788 791 794 796 800 805 808 812 817 821 825 830 834 837 839 840 841 843 843 843 844 846 847 848 848 848 849 849 849 847 845 844 843 842 839 837 835 834
762 767 773 774 776 781 785 786 789 793 797 800 803 808 810 813 819 825 830 832 833 834 835 836 837 838 839 840 842 842 842 842 843 843 841 839 840 838 839 837 834 831 830
762 762 766 767 770 773 776 778 782 787 790 792 795 799 802 804 808 815 821 824 825 826 828 829 830 830 831 834 835 835 835 835 836 836 835 835 834 835 835 833 830 829 826
763 763 765 764 764 766 768 771 774 779 782 785 787 790 793 797 801 804 810 814 816 817 820 819 820 822 824 826 828 829 828 826 829 829 829 829 829 828 829 828 826 825 824
762 761 762 762 764 763 762 764 766 771 775 778 780 782 785 788 791 795 799 803 805 808 809 810 810 812 815 817 819 820 818 821 822 822 821 821 821 820 820 821 821 821 819
763 762 761 757 757 758 755 752 757 761 765 768 771 774 776 780 783 786 788 792 795 798 799 800 801 803 805 808 811 810 812 814 815 815 815 814 813 812 812 814 815 814 814
763 761 756 752 749 748 748 744 748 752 756 761 763 764 767 771 774 776 779 782 786 789 790 792 794 795 798 800 801 802 804 805 806 806 806 805 805 806 806 806 807 808 808
755 749 747 747 745 744 743 739 738 740 746 752 754 754 758 762 763 766 770 774 777 780 783 785 787 789 791 791 792 793 795 796 797 797 796 797 798 800 800 801 801 802 802
756 751 745 744 741 736 735 728 727 727 732 738 741 746 750 750 748 753 757 760 764 768 773 776 778 779 781 781 782 782 784 787 787 788 789 790 792 794 794 795 795 795 795
748 746 740 736 732 729 727 722 722 722 723 727 732 737 740 740 743 748 750 753 757 762 766 766 767 769 769 770 771 771 773 776 777 779 780 781 783 785 786 788 789 789 790
749 743 745 739 737 733 725 715 708 713 716 719 724 729 733 737 736 741 742 747 752 756 755 755 757 759 759 760 761 763 763 764 767 770 771 771 772 774 776 778 780 783 785
751 746 743 734 737 730 724 719 719 714 714 712 718 722 725 728 731 733 735 739 743 745 746 747 746 749 750 751 752 753 755 757 759 761 760 760 760 762 765 770 774 777 781
749 741 735 732 734 729 722 720 717 712 705 708 712 714 715 719 723 725 726 729 733 733 734 736 737 738 740 740 741 743 746 749 751 753 754 754 754 756 758 761 764 764 762
733 724 725 729 724 714 716 714 712 709 704 703 703 702 705 710 712 714 716 720 723 723 725 725 727 728 732 734 737 739 740 743 743 744 746 747 748 749 749 750 752 753 750
731 729 730 728 722 716 718 714 710 707 699 695 694 693 693 699 702 705 708 713 715 716 718 720 722 722 723 725 728 730 732 735 738 741 743 743 744 746 748 749 749 751 749
731 730 730 726 724 719 717 714 708 702 696 691 690 691 691 695 699 700 702 706 708 711 713 714 715 717 718 720 722 725 727 732 734 737 738 739 739 739 740 740 740 745 744
729 724 721 720 714 709 716 708 703 702 696 690 688 691 690 691 694 697 701 704 706 708 712 710 713 715 716 719 722 723 727 729 730 732 733 734 735 736 737 736 734 734 737
730 728 726 723 720 717 713 703 703 704 698 695 691 694 699 699 696 698 699 703 706 710 718 710 717 719 720 721 723 724 724 728 728 727 732 735 737 738 739 738 737 735 735
730 728 726 724 722 717 714 711 711 708 703 701 699 702 705 707 708 705 705 703 709 711 715 722 725 723 728 726 725 727 727 730 729 726 729 732 736 740 736 736 740 739 735
732 731 727 722 723 721 719 719 717 716 709 707 707 709 712 713 712 718 719 717 714 714 719 723 733 726 728 730 731 733 735 728 732 731 732 731 728 733 735 740 738 737 738